User: anonymous   Login
Location: Unspecified
(0.0000°N, 0.0000°E)
Time: 02:32:11
(UTC+00:00)
Language:

ASTRA 1KR - Orbit

View from above orbital plane
View from above orbital plane
View from above satellite
View from above satellite

Ground track
Ground track

The orbit data is extracted from the following two-line orbital elements,

1 29055U 06012A   15059.84166713  .00000094  00000-0  00000+0 0  9998
2 29055 000.0795 284.0947 0002156 027.3269 169.0844 01.00275808 32403
Epoch (UTC): 28 February 2015 20:12:00
Eccentricity: 0.0002156
inclination: 0.0795°
perigee height: 35776 km
apogee height: 35794 km
right ascension of ascending node: 284.0947°
argument of perigee: 27.3269°
revolutions per day: 1.00275808
mean anomaly at epoch: 169.0844°
orbit number at epoch: 3240

The dashed part of the orbit path shows where the satellite is in the earth's shadow,  

DLR